Regional Weather Roundup
Issued by NWS Raleigh/Durham, NC

Home | Current Version | Previous Version | Text Only | Print | Product List | Glossary On
Versions: 1 2 3 4 5 6 7 8 9 10 11 12 13 14 15 16 17 18 19 20 21 22 23 24 25 26 27 28
000
ASUS42 KRAH 301110
RWRRAH
NORTH CAROLINA WEATHER ROUNDUP
NATIONAL WEATHER SERVICE RALEIGH NC
700 AM EDT SAT JUL 30 2016

NOTE: "FAIR" INDICATES FEW OR NO CLOUDS BELOW 12,000 FEET WITH NO
SIGNIFICANT WEATHER AND/OR OBSTRUCTIONS TO VISIBILITY.

NCZ001-053-055-056-065-067-301200-
WESTERN NORTH CAROLINA

CITY           SKY/WX    TMP DP  RH WIND       PRES   REMARKS
ASHEVILLE      CLOUDY    68  65  90 NW3       30.07R FOG
JEFFERSON      PTCLDY    66  63  89 W5        30.10R
HICKORY        FOG       71  71 100 NW3       30.00R VSB<1/4
RUTHERFORDTON    N/A     70  70 100 CALM      30.01R
MOUNT AIRY     PTCLDY    73  70  92 CALM      30.02R
BOONE          CLOUDY    66  65  94 W3        30.12R
$$

NCZ021-022-025-041-071-084-088-301200-
CENTRAL NORTH CAROLINA

CITY           SKY/WX    TMP DP  RH WIND       PRES   REMARKS
CHARLOTTE      PTCLDY    73  70  90 NW6       29.98R
GREENSBORO     MOCLDY    75  71  87 NW5       29.98R
WINSTON-SALEM  PTCLDY    73  70  90 CALM      29.99R
RALEIGH-DURHAM CLOUDY    78  72  81 SE6       29.96R
FORT BRAGG     PTCLDY    78  72  82 CALM      29.94R
FAYETTEVILLE   CLEAR     78  72  81 S5        29.95R
BURLINGTON     MOCLDY    75  72  90 CALM      29.96R
LAURINBURG     CLEAR     75  73  93 SE3       29.96R
$$

NCZ011-015-027-028-043-044-047-080-103-301200-
NORTHEASTERN NORTH CAROLINA

CITY           SKY/WX    TMP DP  RH WIND       PRES   REMARKS
ROCKY MT-WILSO CLEAR     75  75 100 CALM      29.96R
GREENVILLE     CLEAR     77  77 100 CALM      29.98R
WASHINGTON     CLEAR     76  74  96 CALM      29.97R
ELIZABETH CITY CLEAR     76  74  93 CALM      29.97R
MANTEO         NOT AVBL
CAPE HATTERAS  CLEAR     79  77  94 NE5       29.97R
$$

NCZ078-087-090-091-093-098-101-301200-
SOUTHEASTERN NORTH CAROLINA

CITY           SKY/WX    TMP DP  RH WIND       PRES   REMARKS
LUMBERTON      CLEAR     75  73  93 CALM      29.95R
GOLDSBORO      CLOUDY    76  76 100 E2        29.94R
KINSTON        CLEAR     79  75  89 CALM      29.97R
KENANSVILLE    NOT AVBL
NEW BERN       PTCLDY    78  75  90 CALM      29.97R
CHERRY POINT   MOCLDY    78  76  93 CALM      29.97R
BEAUFORT       CLOUDY    81  80  97 NE3       29.96R
JACKSONVILLE   CLOUDY    80  73  79 S3        29.96R
WILMINGTON     MOCLDY    81  78  91 W5        29.96R
$$





USA.gov is the U.S. government's official web portal to all federal, state and local government web resources and services.